QPF
0.00 0.00 0.00 0.00 0.00 0.00 0.00 0.00 0.00 0.00 0.00 0.00 0.00 0.00 0.00 0.00 0.00 0.00 0.00 0.00 0.00 0.00 0.00 0.00 0.00 0.00 0.00 0.00 0.06 0.03 0.05 0.14 0.10 0.00 0.00 0.00 0.01 0.01 0.00 0.00 0.00 0.00 0.00 0.00 0.00
0.00 0.00 0.00 0.00 0.00 0.00 0.00 0.00 0.00 0.00 0.00 0.00 0.00 0.00 0.00 0.00 0.00 0.00 0.00 0.00 0.00 0.00 0.00 0.00 0.00 0.00 0.00 0.00 0.01 0.14 0.07 0.14 0.09 0.01 0.00 0.00 0.00 0.00 0.00 0.00 0.00 0.00 0.00 0.00 0.00
0.00 0.00 0.00 0.00 0.00 0.00 0.00 0.00 0.00 0.00 0.00 0.00 0.00 0.00 0.00 0.00 0.00 0.00 0.00 0.00 0.00 0.00 0.00 0.00 0.00 0.00 0.00 0.00 0.01 0.13 0.07 0.02 0.09 0.02 0.00 0.00 0.00 0.00 0.00 0.00 0.00 0.00 0.00 0.00 0.00
0.00 0.00 0.00 0.00 0.00 0.00 0.00 0.00 0.00 0.00 0.00 0.00 0.00 0.00 0.00 0.00 0.00 0.00 0.00 0.00 0.00 0.00 0.00 0.00 0.00 0.00 0.00 0.00 0.02 0.10 0.11 0.01 0.07 0.07 0.02 0.00 0.00 0.00 0.00 0.00 0.00 0.00 0.00 0.00 0.00
0.00 0.00 0.00 0.00 0.00 0.00 0.00 0.00 0.00 0.00 0.00 0.00 0.00 0.00 0.00 0.00 0.00 0.00 0.00 0.00 0.00 0.00 0.00 0.00 0.00 0.00 0.01 0.00 0.00 0.06 0.15 0.04 0.11 0.08 0.06 0.00 0.00 0.00 0.00 0.00 0.00 0.00 0.00 0.00 0.00
0.00 0.00 0.00 0.00 0.00 0.00 0.00 0.00 0.00 0.00 0.00 0.00 0.00 0.00 0.00 0.00 0.00 0.00 0.00 0.00 0.00 0.00 0.00 0.00 0.00 0.00 0.00 0.02 0.02 0.04 0.08 0.08 0.06 0.03 0.00 0.00 0.00 0.00 0.00 0.00 0.00 0.00 0.00 0.00 0.00
0.00 0.00 0.00 0.00 0.00 0.00 0.00 0.00 0.00 0.00 0.00 0.00 0.00 0.00 0.00 0.00 0.00 0.00 0.00 0.00 0.00 0.00 0.00 0.00 0.00 0.00 0.00 0.02 0.02 0.05 0.14 0.13 0.14 0.04 0.01 0.00 0.00 0.00 0.00 0.00 0.00 0.00 0.00 0.00 0.00
0.00 0.00 0.00 0.00 0.00 0.00 0.00 0.00 0.00 0.00 0.00 0.00 0.00 0.00 0.00 0.00 0.00 0.00 0.00 0.00 0.00 0.00 0.00 0.00 0.00 0.00 0.00 0.00 0.03 0.18 0.24 0.20 0.17 0.10 0.02 0.03 0.02 0.00 0.00 0.00 0.00 0.00 0.00 0.00 0.00
0.00 0.00 0.00 0.00 0.00 0.00 0.00 0.00 0.00 0.00 0.00 0.00 0.00 0.00 0.00 0.00 0.00 0.00 0.00 0.00 0.00 0.00 0.00 0.00 0.00 0.00 0.00 0.00 0.04 0.09 0.10 0.12 0.13 0.11 0.05 0.06 0.01 0.00 0.00 0.00 0.00 0.00 0.00 0.00 0.00
0.00 0.00 0.00 0.00 0.00 0.00 0.00 0.00 0.00 0.00 0.00 0.00 0.00 0.00 0.00 0.00 0.00 0.00 0.00 0.00 0.00 0.00 0.00 0.00 0.00 0.00 0.00 0.00 0.05 0.05 0.00 0.00 0.03 0.05 0.06 0.10 0.01 0.00 0.00 0.00 0.00 0.00 0.00 0.00 0.00
0.00 0.00 0.00 0.00 0.00 0.00 0.00 0.00 0.00 0.00 0.00 0.00 0.00 0.00 0.00 0.00 0.00 0.00 0.00 0.00 0.00 0.00 0.00 0.00 0.00 0.00 0.00 0.02 0.09 0.03 0.01 0.01 0.02 0.01 0.02 0.05 0.06 0.02 0.00 0.00 0.00 0.00 0.00 0.00 0.00
0.00 0.00 0.00 0.00 0.00 0.00 0.00 0.00 0.00 0.00 0.00 0.00 0.00 0.00 0.00 0.00 0.00 0.00 0.00 0.00 0.00 0.00 0.00 0.00 0.00 0.00 0.00 0.01 0.04 0.03 0.04 0.02 0.01 0.02 0.03 0.01 0.04 0.04 0.01 0.00 0.00 0.00 0.00 0.00 0.00
0.00 0.00 0.00 0.00 0.00 0.00 0.00 0.00 0.00 0.00 0.00 0.00 0.00 0.00 0.00 0.00 0.00 0.00 0.00 0.00 0.00 0.00 0.00 0.00 0.00 0.00 0.00 0.00 0.00 0.04 0.04 0.01 0.01 0.01 0.02 0.02 0.01 0.01 0.01 0.00 0.00 0.00 0.00 0.00 0.00
0.00 0.00 0.00 0.00 0.00 0.00 0.00 0.00 0.00 0.00 0.00 0.00 0.00 0.00 0.00 0.00 0.00 0.00 0.00 0.00 0.00 0.00 0.00 0.00 0.00 0.00 0.00 0.00 0.01 0.09 0.04 0.03 0.02 0.00 0.01 0.01 0.01 0.00 0.00 0.00 0.00 0.00 0.00 0.00 0.00
0.00 0.00 0.00 0.00 0.00 0.00 0.00 0.00 0.00 0.00 0.00 0.00 0.00 0.00 0.00 0.00 0.00 0.00 0.00 0.00 0.00 0.00 0.00 0.00 0.00 0.00 0.00 0.00 0.01 0.03 0.02 0.02 0.05 0.02 0.02 0.01 0.01 0.00 0.00 0.00 0.00 0.00 0.00 0.00 0.00
0.00 0.00 0.00 0.00 0.00 0.00 0.00 0.00 0.00 0.00 0.00 0.00 0.00 0.00 0.00 0.00 0.00 0.00 0.00 0.00 0.00 0.00 0.00 0.00 0.00 0.00 0.00 0.00 0.00 0.01 0.05 0.11 0.04 0.00 0.01 0.00 0.00 0.00 0.00 0.00 0.00 0.00 0.00 0.00 0.00
0.00 0.00 0.00 0.00 0.00 0.00 0.00 0.00 0.00 0.00 0.00 0.00 0.00 0.00 0.00 0.00 0.00 0.00 0.00 0.00 0.00 0.00 0.00 0.00 0.00 0.00 0.00 0.00 0.00 0.04 0.10 0.08 0.03 0.02 0.01 0.01 0.01 0.00 0.00 0.00 0.00 0.00 0.00 0.00 0.00
0.00 0.00 0.00 0.00 0.00 0.00 0.00 0.00 0.00 0.00 0.00 0.00 0.00 0.00 0.00 0.00 0.00 0.00 0.00 0.00 0.00 0.00 0.00 0.00 0.00 0.00 0.00 0.00 0.00 0.00 0.00 0.02 0.01 0.03 0.02 0.01 0.03 0.02 0.00 0.00 0.00 0.00 0.00 0.00 0.00
0.00 0.00 0.00 0.00 0.00 0.00 0.00 0.00 0.00 0.00 0.00 0.00 0.00 0.00 0.00 0.00 0.00 0.00 0.00 0.00 0.00 0.00 0.00 0.00 0.00 0.00 0.00 0.00 0.00 0.00 0.00 0.00 0.00 0.00 0.00 0.00 0.00 0.02 0.05 0.00 0.00 0.00 0.00 0.00 0.00
0.00 0.00 0.00 0.00 0.00 0.00 0.00 0.00 0.00 0.00 0.00 0.00 0.00 0.00 0.00 0.00 0.00 0.00 0.00 0.00 0.00 0.00 0.00 0.00 0.00 0.00 0.00 0.00 0.00 0.00 0.00 0.00 0.00 0.00 0.00 0.00 0.00 0.00 0.04 0.03 0.01 0.01 0.00 0.00 0.00
0.00 0.00 0.00 0.00 0.00 0.00 0.00 0.00 0.00 0.00 0.00 0.00 0.00 0.00 0.00 0.00 0.00 0.00 0.00 0.00 0.00 0.00 0.00 0.00 0.00 0.00 0.00 0.00 0.00 0.00 0.00 0.00 0.00 0.00 0.00 0.00 0.00 0.00 0.01 0.08 0.08 0.08 0.02 0.01 0.00
0.00 0.00 0.00 0.00 0.00 0.00 0.00 0.00 0.00 0.00 0.00 0.00 0.00 0.00 0.00 0.00 0.00 0.00 0.00 0.00 0.00 0.00 0.00 0.00 0.00 0.00 0.00 0.00 0.00 0.00 0.00 0.00 0.00 0.00 0.00 0.00 0.00 0.00 0.00 0.01 0.07 0.09 0.09 0.10 0.03
0.00 0.00 0.00 0.00 0.00 0.00 0.00 0.00 0.00 0.00 0.00 0.00 0.00 0.00 0.00 0.00 0.00 0.00 0.00 0.00 0.00 0.00 0.00 0.00 0.00 0.00 0.00 0.00 0.00 0.00 0.00 0.00 0.00 0.00 0.00 0.00 0.00 0.00 0.00 0.00 0.03 0.02 0.03 0.05 0.05
0.00 0.00 0.00 0.00 0.00 0.00 0.00 0.00 0.00 0.00 0.00 0.00 0.00 0.00 0.00 0.00 0.00 0.00 0.00 0.00 0.00 0.00 0.00 0.00 0.00 0.00 0.00 0.00 0.00 0.00 0.00 0.00 0.00 0.00 0.00 0.00 0.00 0.00 0.00 0.00 0.02 0.00 0.00 0.00 0.01
0.00 0.00 0.00 0.00 0.00 0.00 0.00 0.00 0.00 0.00 0.00 0.00 0.00 0.00 0.00 0.00 0.00 0.01 0.00 0.00 0.00 0.00 0.00 0.00 0.00 0.00 0.00 0.00 0.00 0.00 0.00 0.00 0.00 0.00 0.00 0.00 0.00 0.03 0.06 0.03 0.04 0.02 0.00 0.00 0.01
0.00 0.00 0.00 0.00 0.00 0.00 0.00 0.00 0.00 0.00 0.00 0.00 0.00 0.00 0.00 0.00 0.00 0.00 0.00 0.00 0.00 0.00 0.00 0.00 0.00 0.00 0.00 0.00 0.00 0.00 0.00 0.00 0.00 0.00 0.00 0.00 0.00 0.02 0.01 0.07 0.10 0.14 0.16 0.06 0.01
0.00 0.00 0.00 0.00 0.00 0.00 0.00 0.00 0.00 0.00 0.00 0.00 0.00 0.00 0.00 0.00 0.00 0.00 0.00 0.00 0.00 0.00 0.00 0.00 0.00 0.00 0.00 0.00 0.00 0.00 0.00 0.00 0.00 0.00 0.00 0.01 0.04 0.02 0.01 0.01 0.09 0.17 0.19 0.34 0.25
MSLP
1017.37 1017.14 1016.93 1016.72 1016.48 1016.23 1015.97 1015.80 1015.63 1015.47 1015.30 1015.10 1014.93 1014.74 1014.49 1014.13 1013.47 1012.74 1011.53 1009.09 1008.95 1008.89 1009.13 1008.82 1008.88 1008.67 1008.61 1008.83 1010.08 1011.19 1012.03 1011.88 1011.14 1009.69 1008.35 1007.88 1008.11 1008.19 1008.01 1008.62 1009.27 1009.60 1010.45 1011.28 1012.40
1017.31 1017.07 1016.83 1016.62 1016.39 1016.11 1015.85 1015.68 1015.53 1015.33 1015.11 1014.94 1014.79 1014.65 1014.39 1014.08 1013.31 1011.47 1008.65 1008.54 1008.40 1008.67 1008.98 1008.55 1008.39 1008.25 1008.43 1008.62 1009.61 1010.65 1011.76 1012.03 1011.66 1010.11 1008.31 1008.40 1008.38 1008.21 1008.60 1009.07 1009.67 1010.29 1010.65 1011.20 1012.59
1017.22 1016.97 1016.72 1016.45 1016.17 1015.92 1015.76 1015.56 1015.39 1015.21 1014.99 1014.79 1014.65 1014.52 1014.24 1014.01 1012.60 1008.72 1007.23 1008.10 1008.27 1008.42 1008.58 1008.04 1007.57 1007.32 1007.73 1008.46 1009.11 1010.44 1011.89 1012.83 1011.19 1010.57 1007.89 1008.02 1008.16 1008.05 1008.53 1009.33 1009.89 1010.25 1010.57 1011.31 1012.21
1017.15 1016.89 1016.61 1016.33 1016.06 1015.81 1015.61 1015.43 1015.27 1015.11 1014.93 1014.71 1014.51 1014.34 1014.02 1013.66 1010.84 1007.65 1007.35 1007.83 1008.36 1008.37 1008.59 1008.37 1007.70 1007.31 1007.55 1008.03 1008.63 1010.39 1012.23 1012.74 1011.36 1010.06 1010.55 1008.09 1007.71 1007.85 1008.00 1008.88 1009.27 1010.14 1010.54 1011.06 1011.83
1017.13 1016.85 1016.54 1016.21 1015.91 1015.67 1015.44 1015.25 1015.08 1014.97 1014.89 1014.73 1014.46 1014.17 1013.57 1012.39 1008.92 1007.14 1007.43 1007.95 1008.32 1008.52 1008.33 1008.10 1007.54 1006.83 1007.25 1007.58 1008.27 1010.00 1012.50 1013.19 1011.93 1011.25 1011.04 1008.94 1008.02 1007.65 1008.50 1008.86 1009.39 1009.64 1010.57 1011.19 1011.60
1017.10 1016.72 1016.41 1016.13 1015.79 1015.49 1015.23 1015.04 1014.89 1014.77 1014.68 1014.59 1014.42 1014.27 1013.52 1010.54 1006.43 1006.74 1007.27 1007.89 1007.80 1008.23 1008.02 1007.59 1006.71 1006.11 1006.85 1007.39 1008.45 1009.74 1011.34 1011.62 1012.29 1011.33 1010.78 1008.93 1008.70 1008.07 1009.15 1009.25 1009.73 1009.95 1010.78 1011.26 1011.69
1016.97 1016.65 1016.29 1015.97 1015.62 1015.32 1015.06 1014.83 1014.65 1014.53 1014.41 1014.37 1014.33 1013.93 1012.32 1008.71 1005.84 1006.31 1006.68 1007.33 1007.36 1007.66 1007.77 1006.76 1006.16 1006.11 1005.99 1007.31 1008.16 1009.65 1010.69 1010.82 1011.04 1010.85 1010.50 1009.47 1009.15 1009.07 1009.04 1009.49 1010.10 1010.42 1010.81 1011.25 1011.85
1016.78 1016.47 1016.19 1015.83 1015.49 1015.23 1014.93 1014.63 1014.45 1014.31 1014.25 1014.24 1014.08 1013.53 1010.66 1006.76 1005.95 1006.17 1006.15 1006.85 1006.96 1007.09 1007.17 1006.37 1005.73 1005.86 1006.17 1007.27 1009.35 1010.24 1010.67 1011.51 1011.86 1011.42 1011.66 1011.12 1010.12 1009.21 1009.11 1009.57 1010.27 1010.51 1010.78 1011.19 1011.50
1016.65 1016.35 1016.08 1015.76 1015.37 1015.02 1014.59 1014.22 1013.91 1013.73 1013.75 1013.92 1013.86 1012.81 1009.06 1006.11 1005.92 1005.67 1005.59 1006.03 1006.52 1006.59 1006.54 1006.15 1005.67 1006.11 1006.33 1007.33 1009.30 1010.71 1011.89 1012.85 1013.12 1012.97 1012.63 1012.67 1010.87 1009.53 1009.28 1009.70 1010.44 1010.64 1010.77 1011.17 1011.59
1016.61 1016.25 1016.01 1015.64 1015.26 1014.92 1014.26 1013.68 1013.28 1013.40 1013.37 1013.09 1012.24 1011.62 1007.85 1005.61 1005.16 1005.27 1005.13 1005.24 1005.93 1006.16 1006.36 1006.19 1006.03 1006.38 1006.91 1007.75 1009.09 1011.06 1012.55 1013.35 1013.27 1013.53 1013.58 1013.05 1011.70 1010.61 1009.93 1010.26 1010.68 1010.86 1010.99 1011.40 1011.77
1016.63 1016.13 1015.81 1015.49 1015.21 1014.93 1014.08 1012.97 1013.49 1012.73 1011.80 1010.19 1009.03 1007.61 1005.61 1004.99 1004.70 1005.03 1005.01 1005.01 1005.38 1005.85 1006.24 1006.35 1006.96 1006.87 1006.88 1007.17 1008.31 1010.26 1011.80 1013.10 1014.07 1014.22 1014.45 1014.31 1012.88 1012.64 1012.00 1011.10 1011.21 1011.30 1011.25 1011.55 1011.83
1016.44 1015.97 1015.58 1015.22 1014.91 1014.84 1014.86 1012.79 1010.19 1008.72 1008.54 1007.69 1007.02 1006.05 1005.15 1004.77 1004.91 1004.83 1004.82 1005.26 1005.57 1006.00 1006.31 1006.73 1006.66 1006.28 1006.29 1007.52 1009.03 1010.33 1011.94 1013.57 1014.41 1014.01 1014.63 1014.90 1014.53 1014.23 1013.40 1013.18 1012.83 1012.36 1011.17 1011.41 1011.76
1016.24 1015.78 1015.36 1014.90 1014.41 1014.26 1012.77 1010.56 1008.45 1007.83 1007.73 1005.97 1005.66 1005.05 1004.84 1004.95 1004.65 1004.71 1005.11 1005.09 1005.54 1005.91 1006.03 1006.05 1005.22 1005.29 1005.48 1006.90 1008.76 1011.29 1011.77 1013.17 1013.96 1014.49 1015.49 1015.39 1015.61 1014.91 1013.77 1013.52 1013.19 1012.39 1012.05 1011.34 1011.70
1016.09 1015.64 1015.25 1014.63 1014.43 1012.33 1010.77 1008.39 1008.24 1007.51 1007.29 1005.58 1004.79 1004.19 1004.31 1004.61 1004.37 1004.06 1004.62 1005.01 1005.06 1005.33 1005.54 1005.25 1004.33 1004.49 1004.73 1005.73 1007.63 1010.52 1011.97 1013.33 1014.05 1014.47 1015.17 1015.81 1016.35 1015.68 1014.34 1013.86 1013.35 1012.77 1012.32 1011.97 1011.99
1015.94 1015.49 1015.22 1015.14 1014.51 1012.17 1009.11 1007.67 1007.59 1007.58 1007.29 1005.27 1004.36 1003.97 1004.00 1004.44 1003.74 1003.99 1004.27 1004.76 1004.94 1004.87 1004.89 1004.40 1003.65 1003.49 1003.77 1004.78 1006.98 1010.32 1011.64 1012.77 1013.66 1014.25 1014.62 1015.54 1015.87 1013.98 1013.70 1013.33 1012.61 1012.39 1012.34 1012.09 1012.09
1015.62 1015.23 1014.96 1014.38 1014.21 1010.65 1008.88 1008.25 1007.77 1008.02 1007.02 1005.55 1004.31 1004.25 1004.32 1004.01 1003.68 1004.11 1004.46 1004.73 1004.61 1004.74 1004.29 1003.75 1002.99 1002.96 1002.95 1004.57 1005.57 1008.63 1011.53 1012.93 1013.55 1014.28 1014.47 1013.72 1014.27 1012.51 1012.58 1010.64 1010.35 1011.11 1011.66 1011.64 1012.01
1014.96 1014.67 1014.91 1013.56 1011.27 1009.09 1008.56 1008.39 1008.39 1007.53 1006.51 1005.33 1004.54 1004.29 1004.27 1004.14 1004.11 1004.23 1004.73 1005.04 1005.16 1004.96 1004.64 1003.73 1003.25 1002.72 1002.71 1004.64 1005.73 1008.15 1010.87 1012.65 1013.62 1013.80 1013.15 1012.45 1012.97 1010.67 1010.09 1009.14 1009.35 1009.33 1010.56 1011.29 1011.78
1014.04 1014.00 1012.90 1012.17 1010.15 1009.25 1008.84 1008.97 1008.26 1006.83 1005.81 1004.99 1004.60 1004.33 1004.62 1004.53 1004.39 1004.28 1004.88 1005.27 1004.91 1005.07 1005.18 1004.26 1003.61 1002.81 1002.74 1003.81 1005.28 1006.78 1008.05 1008.84 1010.68 1011.73 1012.35 1012.19 1012.17 1010.03 1009.21 1008.06 1009.27 1009.23 1009.58 1010.57 1011.01
1013.09 1012.28 1011.72 1009.89 1009.78 1009.76 1009.62 1008.52 1007.24 1006.34 1005.45 1004.99 1004.89 1005.19 1005.53 1005.14 1004.92 1004.71 1004.71 1004.73 1004.46 1004.41 1005.02 1004.47 1003.37 1002.62 1002.41 1002.61 1003.54 1005.01 1006.60 1006.29 1008.89 1009.93 1010.74 1011.34 1011.53 1009.81 1007.55 1007.36 1008.43 1008.91 1009.23 1009.99 1010.65
1013.28 1011.47 1009.43 1007.91 1008.41 1008.87 1009.10 1008.02 1006.79 1006.28 1005.65 1005.47 1005.53 1005.63 1006.14 1005.92 1005.37 1005.23 1005.43 1004.99 1004.27 1004.17 1004.15 1004.41 1004.06 1002.84 1002.23 1002.38 1002.65 1003.58 1004.22 1005.36 1006.89 1008.94 1009.83 1009.85 1009.91 1009.24 1008.57 1008.67 1008.89 1008.64 1008.83 1009.35 1010.24
1013.02 1010.89 1007.34 1006.75 1007.29 1008.24 1008.21 1007.03 1006.39 1006.12 1005.98 1005.77 1005.79 1006.22 1006.91 1006.60 1005.82 1006.01 1005.87 1005.49 1005.37 1004.74 1004.65 1004.65 1004.79 1004.13 1002.69 1002.72 1003.14 1003.56 1003.97 1004.87 1005.81 1007.02 1007.93 1008.69 1009.13 1008.06 1007.39 1008.10 1008.94 1009.69 1008.54 1008.68 1009.33
1012.73 1010.41 1006.76 1006.67 1007.49 1007.41 1007.25 1006.61 1006.41 1006.01 1005.78 1005.67 1005.82 1006.11 1006.95 1006.71 1006.58 1006.71 1006.57 1005.91 1005.79 1005.57 1005.93 1006.08 1005.49 1005.52 1004.31 1003.73 1003.27 1003.61 1004.09 1004.65 1006.02 1006.51 1006.63 1006.92 1007.34 1006.66 1006.70 1007.31 1008.35 1008.55 1009.09 1008.75 1008.58
1013.68 1010.25 1007.07 1006.53 1007.09 1006.83 1006.63 1006.47 1006.35 1006.28 1006.19 1006.21 1006.34 1006.64 1006.86 1007.07 1007.37 1007.22 1006.96 1006.59 1006.21 1006.14 1006.72 1006.99 1006.77 1006.67 1005.70 1004.67 1004.11 1004.01 1004.17 1004.45 1004.90 1005.51 1006.58 1007.27 1006.99 1006.60 1007.04 1008.02 1006.95 1006.39 1007.75 1008.04 1008.53
1014.12 1010.36 1007.38 1006.77 1006.62 1006.69 1006.59 1006.44 1006.41 1006.47 1006.62 1006.89 1007.03 1007.05 1007.18 1007.39 1007.99 1007.93 1007.27 1006.45 1006.42 1006.52 1006.87 1007.20 1007.55 1008.33 1008.09 1007.43 1006.42 1005.67 1004.93 1004.68 1004.98 1005.93 1006.48 1006.57 1007.07 1007.84 1008.29 1008.44 1007.58 1005.97 1006.26 1006.89 1008.13
1013.57 1010.49 1008.72 1007.65 1007.37 1007.11 1007.08 1007.03 1006.65 1006.64 1006.78 1007.08 1007.29 1007.44 1007.84 1008.30 1008.55 1008.72 1008.01 1007.05 1006.77 1006.85 1007.17 1007.70 1008.37 1008.71 1008.07 1007.17 1006.77 1006.27 1005.73 1005.37 1005.38 1005.63 1006.34 1006.87 1007.14 1008.60 1008.99 1010.17 1009.22 1007.93 1007.34 1007.01 1008.19
1013.27 1011.46 1009.07 1008.25 1007.80 1007.60 1007.43 1007.27 1007.21 1007.25 1007.41 1007.73 1007.97 1008.18 1008.44 1008.69 1008.75 1009.44 1008.92 1008.07 1007.64 1007.79 1008.04 1008.40 1008.87 1008.89 1008.45 1007.54 1006.95 1006.67 1006.43 1005.99 1005.98 1006.39 1005.92 1007.82 1008.63 1009.43 1009.01 1009.65 1010.81 1010.04 1009.16 1009.16 1009.22
1013.08 1011.50 1010.33 1009.10 1008.32 1007.80 1007.50 1007.59 1007.71 1008.09 1008.01 1007.99 1008.25 1008.76 1008.87 1008.83 1008.69 1008.61 1008.58 1008.47 1008.53 1008.39 1009.03 1009.52 1009.90 1010.10 1009.38 1008.23 1007.50 1007.97 1007.78 1006.87 1007.04 1007.99 1008.34 1009.57 1010.70 1010.75 1011.39 1011.51 1011.25 1012.56 1011.50 1010.57 1011.31
Thickness
5735 5735 5734 5735 5736 5737 5738 5739 5739 5740 5741 5742 5744 5746 5750 5754 5761 5769 5772 5796 5800 5804 5804 5806 5804 5805 5808 5800 5790 5781 5749 5745 5756 5767 5786 5802 5789 5804 5812 5796 5798 5800 5790 5791 5792
5734 5734 5734 5735 5736 5737 5738 5738 5738 5740 5741 5742 5743 5745 5747 5752 5759 5770 5800 5801 5804 5803 5798 5796 5791 5800 5792 5792 5789 5771 5748 5742 5763 5777 5795 5799 5795 5798 5793 5788 5788 5787 5796 5798 5792
5733 5733 5734 5734 5735 5735 5735 5736 5736 5737 5739 5741 5742 5743 5746 5749 5757 5786 5808 5803 5803 5803 5802 5804 5805 5804 5791 5791 5791 5771 5748 5744 5755 5778 5812 5805 5801 5809 5795 5778 5787 5783 5791 5794 5787
5731 5731 5732 5732 5732 5732 5732 5732 5733 5733 5735 5737 5739 5740 5743 5747 5756 5796 5805 5803 5800 5801 5796 5792 5794 5789 5783 5781 5795 5767 5759 5753 5767 5785 5774 5803 5811 5801 5804 5797 5808 5801 5802 5800 5792
5728 5729 5728 5729 5729 5729 5729 5729 5729 5729 5730 5731 5734 5737 5743 5746 5766 5799 5800 5798 5797 5795 5788 5786 5784 5791 5777 5789 5796 5776 5750 5743 5757 5774 5774 5799 5802 5806 5799 5808 5812 5810 5805 5798 5796
5725 5726 5725 5725 5725 5725 5725 5725 5725 5724 5724 5725 5726 5729 5733 5738 5803 5800 5797 5794 5794 5789 5787 5791 5793 5804 5787 5788 5785 5784 5768 5771 5761 5767 5784 5795 5796 5807 5797 5809 5803 5805 5797 5800 5797
5722 5721 5721 5721 5721 5720 5720 5720 5719 5718 5718 5717 5718 5721 5728 5749 5801 5798 5796 5790 5794 5790 5782 5798 5804 5795 5800 5783 5798 5785 5773 5783 5779 5785 5782 5790 5783 5782 5803 5804 5796 5798 5798 5801 5798
5719 5718 5717 5716 5716 5715 5713 5712 5711 5710 5708 5707 5708 5713 5721 5777 5788 5789 5791 5786 5793 5793 5791 5803 5808 5798 5794 5796 5772 5760 5771 5752 5766 5775 5770 5768 5760 5790 5804 5800 5790 5795 5799 5799 5802
5715 5714 5712 5711 5710 5708 5708 5707 5706 5704 5702 5701 5701 5704 5721 5771 5766 5782 5788 5778 5782 5788 5793 5801 5802 5785 5789 5771 5752 5747 5731 5729 5741 5759 5756 5750 5761 5792 5803 5799 5788 5792 5798 5798 5800
5711 5710 5707 5706 5704 5703 5703 5705 5705 5702 5700 5701 5706 5696 5732 5744 5766 5775 5786 5787 5775 5778 5775 5777 5777 5764 5763 5757 5726 5730 5726 5725 5720 5746 5748 5745 5763 5782 5795 5792 5788 5788 5793 5794 5796
5706 5706 5704 5701 5699 5697 5700 5708 5699 5697 5703 5709 5716 5724 5744 5759 5770 5764 5776 5774 5774 5766 5747 5767 5743 5736 5756 5771 5765 5753 5739 5729 5728 5737 5736 5732 5747 5754 5765 5782 5780 5784 5788 5792 5794
5703 5702 5700 5699 5697 5694 5692 5702 5715 5726 5705 5727 5731 5737 5749 5755 5736 5750 5769 5750 5751 5737 5752 5742 5732 5766 5779 5769 5756 5748 5730 5719 5725 5733 5731 5727 5725 5739 5753 5755 5763 5770 5791 5790 5795
5700 5699 5698 5699 5700 5698 5706 5716 5736 5736 5703 5727 5734 5735 5737 5744 5732 5737 5751 5749 5741 5737 5743 5735 5762 5781 5782 5766 5746 5733 5730 5724 5723 5726 5722 5719 5714 5726 5750 5757 5764 5775 5784 5794 5794
5698 5697 5697 5700 5699 5713 5714 5736 5735 5737 5682 5709 5722 5736 5741 5740 5726 5758 5758 5748 5745 5734 5745 5750 5778 5776 5776 5770 5755 5722 5737 5732 5718 5718 5706 5717 5694 5710 5732 5742 5750 5765 5775 5785 5790
5696 5696 5696 5693 5693 5706 5728 5740 5740 5725 5649 5719 5727 5757 5747 5727 5739 5740 5762 5748 5731 5740 5750 5748 5766 5770 5770 5775 5765 5721 5731 5730 5727 5712 5717 5707 5697 5726 5735 5736 5751 5760 5771 5783 5789
5697 5697 5697 5698 5695 5721 5732 5735 5727 5677 5656 5704 5732 5725 5725 5734 5739 5744 5742 5753 5753 5741 5752 5760 5790 5786 5786 5776 5776 5755 5729 5722 5722 5709 5698 5724 5715 5730 5729 5754 5769 5774 5772 5782 5787
5701 5701 5696 5702 5714 5732 5734 5722 5677 5664 5712 5709 5716 5728 5723 5723 5731 5731 5724 5719 5713 5713 5720 5753 5763 5785 5797 5752 5769 5746 5717 5682 5683 5691 5707 5729 5717 5744 5762 5773 5775 5782 5783 5785 5787
5708 5706 5712 5713 5725 5730 5724 5691 5663 5696 5705 5732 5729 5732 5714 5725 5728 5733 5718 5709 5732 5731 5717 5719 5718 5767 5788 5762 5750 5749 5742 5722 5692 5700 5707 5729 5710 5744 5769 5786 5779 5782 5789 5785 5788
5715 5719 5718 5731 5729 5725 5704 5675 5687 5702 5724 5721 5723 5706 5701 5720 5725 5728 5724 5721 5737 5744 5714 5713 5734 5779 5787 5795 5783 5763 5734 5777 5724 5735 5722 5720 5721 5758 5784 5787 5783 5781 5787 5787 5788
5711 5719 5728 5746 5738 5725 5694 5682 5702 5719 5722 5717 5696 5710 5691 5699 5711 5715 5708 5729 5737 5753 5753 5738 5718 5764 5782 5791 5790 5773 5784 5746 5740 5707 5705 5727 5738 5736 5762 5765 5771 5785 5789 5792 5790
5712 5710 5745 5753 5743 5711 5683 5702 5715 5725 5723 5713 5705 5699 5692 5696 5713 5709 5708 5725 5732 5738 5745 5741 5731 5732 5772 5760 5757 5758 5756 5763 5758 5747 5720 5712 5727 5763 5775 5774 5765 5761 5791 5798 5795
5710 5696 5750 5752 5704 5708 5698 5715 5716 5721 5728 5723 5722 5714 5696 5708 5705 5700 5698 5715 5736 5736 5716 5728 5727 5704 5730 5766 5781 5774 5762 5761 5725 5734 5755 5749 5745 5789 5791 5787 5778 5771 5777 5791 5803
5693 5708 5746 5743 5692 5700 5717 5718 5721 5715 5714 5712 5708 5712 5716 5705 5692 5700 5700 5720 5731 5725 5713 5723 5705 5686 5711 5738 5756 5757 5765 5769 5766 5758 5738 5732 5741 5788 5785 5775 5787 5800 5788 5794 5792
5689 5693 5722 5729 5727 5714 5709 5710 5706 5721 5714 5713 5708 5711 5705 5698 5694 5688 5699 5720 5728 5725 5730 5728 5711 5688 5660 5683 5713 5719 5744 5760 5761 5730 5741 5748 5752 5762 5768 5764 5785 5813 5810 5812 5795
5692 5698 5712 5696 5704 5710 5711 5708 5705 5700 5715 5714 5702 5704 5693 5679 5678 5672 5688 5705 5718 5717 5721 5714 5689 5699 5707 5722 5725 5722 5733 5745 5742 5749 5745 5758 5757 5741 5755 5749 5766 5789 5806 5810 5796
5683 5688 5711 5703 5712 5706 5700 5700 5698 5699 5701 5691 5687 5694 5691 5678 5682 5664 5680 5689 5695 5706 5701 5702 5681 5695 5696 5719 5724 5720 5727 5738 5747 5753 5760 5737 5727 5746 5761 5759 5736 5754 5773 5777 5779
5694 5700 5696 5698 5702 5699 5696 5696 5696 5697 5702 5702 5694 5684 5678 5686 5696 5698 5698 5699 5698 5698 5689 5686 5678 5671 5671 5704 5711 5693 5708 5730 5732 5723 5721 5704 5712 5733 5730 5732 5737 5727 5742 5734 5750